Location: Rumah Long Bangan
(2.8362°N, 113.7519°E)
Time: 06:39:26
(UTC+00:00)

BLOCK DM-SL R/B - Pass Details

Date: 24 October 2021
Orbit: 654 x 35762 km, 5.6° (Epoch: 28 November)

Event Time Altitude Azimuth Distance (km) Brightness Sun altitude
Exits shadow 20:39:24 38° 239° (WSW) 1,278 3.8 -22.5°
Maximum altitude 20:41:03 58° 179° (S) 1,184 3.9 -22.1°
Drops below altitude 10° 20:53:40 10° 101° (E) 6,426 9.0 -19.0°
Sets 21:05:38 0° 98° (E) 11,012 10.8 -16.1°
